C/2019 U6 ( Lemmon )

Japanese version
Home page
Updated on September 9, 2020

---------------------------------------------------------------------

* Profile

Discovery Date October 31, 2019
Magnitude 20.5 mag
Discoverer R. A. Kowalski (Mt. Lemmon Survey)

* Pictures

* Orbital Elements

Epoch 2020 May 31.0 TT = JDT 2459000.5
T 2020 June 18.82216 TT                                 Rudenko
q   0.9142575            (2000.0)            P               Q
z  +0.0022979      Peri.  329.65987     -0.68858782     +0.06104317
 +/-0.0000008      Node   235.70560     -0.35183729     -0.89942899
e   0.9978992      Incl.   61.00130     -0.63407991     +0.43278310
From 536 observations 2018 Nov. 6-2020 Aug. 2, mean residual 0".7.

* Finding Charts

* Magnitudes Graph

        H = 14.0  G = 0.15                       [    ,-231]  (             - 2019 Oct. 31)
        m1 = 7.0 + 5 log d + 20.0 log r(t + 10)  [-231,    ]  (2019 Oct. 31 -             )

---------------------------------------------------------------------

The orbital elements are published on M.P.E.C. 2020-P19.
The charts are made with StellaNavigator Ver.10 (AstroArts).
The magnitudes graphs are made with Comet for Windows.

---------------------------------------------------------------------

Copyright(C) Seiichi Yoshida (comet@aerith.net). All rights reserved.